FW9372 Weather Reports


Display with metric or nautical units.
time (UTC)temp
F
wind
direction
speed
MPH
gust
MPH
rain 1hr
in
rain 24hr
in
rain mn
in
humidity
%
barometer
mb
20260902194607 96 0 0.0 1.0 0.00 0.00 0.00 59 1015.0
20260902193108 96 0 0.0 0.0 0.00 0.00 0.00 58 1015.2
20260902191605 96 0 0.0 0.0 0.00 0.00 0.00 57 1015.3
20260902190109 95 0 0.0 5.0 0.00 0.00 0.00 55 1015.4
20260902184607 94 0 0.0 7.0 0.00 0.00 0.00 59 1015.7
20260902183110 94 225 0.0 4.0 0.00 0.00 0.00 59 1015.7
20260902181608 94 0 0.0 3.0 0.00 0.00 0.00 62 1015.8
20260902180132 94 0 0.0 3.0 0.00 0.00 0.00 64 1016.0
20260902174607 93 0 1.0 6.0 0.00 0.00 0.00 62 1016.1
20260902173104 93 0 0.0 2.0 0.00 0.00 0.00 63 1016.2
20260902171611 93 0 0.0 0.0 0.00 0.00 0.00 65 1016.4
20260902170106 92 0 0.0 1.0 0.00 0.00 0.00 66 1016.5
20260902164609 92 0 0.0 4.0 0.00 0.00 0.00 67 1016.6
20260902163106 91 0 0.0 2.0 0.00 0.00 0.00 68 1016.9
20260902161608 90 189 0.0 1.0 0.00 0.00 0.00 71 1016.9
20260902160112 90 0 0.0 1.0 0.00 0.00 0.00 71 1016.9
20260902154605 89 0 0.0 1.0 0.00 0.00 0.00 72 1017.0
20260902153121 88 0 0.0 1.0 0.00 0.00 0.00 71 1017.1
20260902151607 87 0 0.0 0.0 0.00 0.00 0.00 76 1017.1
20260902150106 87 0 0.0 0.0 0.00 0.00 0.00 75 1017.1
20260902144603 86 0 0.0 0.0 0.00 0.00 0.00 77 1017.1
20260902143108 84 0 0.0 0.0 0.00 0.00 0.00 79 1017.1
20260902141607 82 0 0.0 0.0 0.00 0.00 0.00 90 1017.2
20260902140103 80 0 0.0 0.0 0.00 0.00 0.00 100 1017.2
20260902134608 78 0 0.0 0.0 0.00 0.00 0.00 100 1017.3
20260902133105 76 0 0.0 0.0 0.00 0.00 0.00 100 1017.4
20260902131607 74 0 0.0 0.0 0.00 0.00 0.00 100 1017.4
20260902130106 73 0 0.0 0.0 0.00 0.00 0.00 100 1017.3
20260902124611 72 0 0.0 0.0 0.00 0.00 0.00 100 1017.3
20260902123105 71 0 0.0 0.0 0.00 0.00 0.00 99 1017.3
20260902121614 70 0 0.0 0.0 0.00 0.00 0.00 99 1017.3
20260902120105 69 0 0.0 0.0 0.00 0.00 0.00 99 1017.0
20260902114605 69 0 0.0 0.0 0.00 0.00 0.00 99 1016.7
20260902113111 69 0 0.0 0.0 0.00 0.00 0.00 99 1016.4
20260902111605 69 0 0.0 0.0 0.00 0.00 0.00 99 1016.3
20260902110120 69 0 0.0 0.0 0.00 0.00 0.00 99 1016.3
20260902104605 69 0 0.0 0.0 0.00 0.00 0.00 99 1016.3
20260902103108 69 0 0.0 0.0 0.00 0.00 0.00 99 1016.1
20260902101607 69 0 0.0 0.0 0.00 0.00 0.00 99 1016.0
20260902100112 70 0 0.0 0.0 0.00 0.00 0.00 99 1015.9
20260902094607 70 0 0.0 0.0 0.00 0.00 0.00 99 1015.7
20260902093105 70 0 0.0 0.0 0.00 0.00 0.00 99 1015.8
20260902091606 70 0 0.0 0.0 0.00 0.00 0.00 99 1015.6
20260902090106 70 0 0.0 0.0 0.00 0.00 0.00 99 1015.4
20260902084622 70 0 0.0 0.0 0.00 0.00 0.00 98 1015.4
20260902083105 70 0 0.0 0.0 0.00 0.00 0.00 99 1015.4
20260902081609 70 0 0.0 0.0 0.00 0.00 0.00 99 1015.4
20260902080106 70 0 0.0 0.0 0.00 0.00 0.00 99 1015.4
20260902074607 71 0 0.0 0.0 0.00 0.00 0.00 99 1015.3
20260902073106 71 0 0.0 0.0 0.00 0.00 0.00 99 1015.3
20260902071607 71 0 0.0 0.0 0.00 0.00 0.00 98 1015.3
20260902070119 71 0 0.0 0.0 0.00 0.00 0.00 98 1015.2
20260902064611 72 0 0.0 0.0 0.00 0.00 0.00 98 1015.4
20260902063103 72 0 0.0 0.0 0.00 0.00 0.00 99 1015.3
20260902061611 72 0 0.0 0.0 0.00 0.00 0.00 98 1015.3
20260902060114 72 0 0.0 0.0 0.00 0.00 0.00 98 1015.3
20260902054604 73 0 0.0 0.0 0.00 0.00 0.00 98 1015.2
20260902053126 73 0 0.0 0.0 0.00 0.00 0.00 98 1015.2
20260902051605 73 0 0.0 0.0 0.00 0.00 0.00 98 1015.2
20260902050122 73 0 0.0 0.0 0.00 0.00 0.00 98 1015.1
20260902044611 73 0 0.0 0.0 0.00 0.00 0.00 97 1015.0
20260902043107 73 0 0.0 0.0 0.00 0.00 0.00 98 1014.9
20260902041615 73 0 0.0 0.0 0.00 0.00 0.00 97 1015.1
20260902040109 74 0 0.0 0.0 0.00 0.00 0.00 97 1015.2
20260902034605 74 0 0.0 0.0 0.00 0.00 0.00 97 1015.2
20260902033114 74 0 0.0 0.0 0.00 0.00 0.00 96 1015.2
20260902031608 74 0 0.0 0.0 0.00 0.00 0.00 96 1015.3
20260902030115 74 0 0.0 0.0 0.00 0.00 0.00 96 1015.4
20260902024608 74 0 0.0 0.0 0.00 0.00 0.00 95 1015.4
20260902023106 75 0 0.0 0.0 0.00 0.00 0.00 95 1015.4
20260902021605 75 0 0.0 0.0 0.00 0.00 0.00 93 1015.2
20260902020106 75 0 0.0 0.0 0.00 0.00 0.00 93 1015.1
20260902014606 76 0 0.0 0.0 0.00 0.00 0.00 93 1015.0
20260902013104 76 0 0.0 0.0 0.00 0.00 0.00 92 1014.9
20260902011604 77 0 0.0 0.0 0.00 0.00 0.00 92 1014.7
20260902010114 77 0 0.0 0.0 0.00 0.00 0.00 91 1014.6
20260902004607 78 0 0.0 0.0 0.00 0.00 0.00 90 1014.4
20260902003110 79 0 0.0 0.0 0.00 0.00 0.00 90 1014.3
20260902001637 79 0 0.0 0.0 0.00 0.00 0.00 89 1014.3
20260902000103 81 0 0.0 0.0 0.00 0.00 0.00 88 1014.5
20260901234603 82 0 0.0 0.0 0.00 0.00 0.00 87 1014.5
20260901233107 84 0 0.0 0.0 0.00 0.00 0.00 84 1014.7
20260901231605 87 0 0.0 0.0 0.00 0.00 0.00 79 1014.7
20260901230104 88 0 0.0 0.0 0.00 0.00 0.00 79 1014.6
20260901224619 89 0 0.0 0.0 0.00 0.00 0.00 78 1014.6
20260901223105 91 0 0.0 0.0 0.00 0.00 0.00 76 1014.6
20260901221605 92 0 0.0 0.0 0.00 0.00 0.00 73 1014.5
20260901220107 94 0 0.0 0.0 0.00 0.00 0.00 70 1014.5
20260901214605 95 0 0.0 0.0 0.00 0.00 0.00 64 1014.4
20260901213122 95 0 0.0 0.0 0.00 0.00 0.00 67 1014.4
20260901211604 96 0 0.0 0.0 0.00 0.00 0.00 64 1014.6
20260901210118 95 0 0.0 0.0 0.00 0.00 0.00 56 1014.6
20260901204606 95 0 0.0 0.0 0.00 0.00 0.00 59 1014.8
20260901203105 96 0 0.0 0.0 0.00 0.00 0.00 58 1015.0
20260901201608 95 0 0.0 0.0 0.00 0.00 0.00 57 1015.2
20260901200116 95 0 0.0 0.0 0.00 0.00 0.00 58 1015.2